This is the latest recevied weather packets stored in our database for station/object K9NZF-1. If no packets are shown the sender has not sent any weather packets the latest 1 day(s).
| Time | Temp. | Humidity | Pressure | Rain* | Wind** | Luminosity | Snow |
|---|---|---|---|---|---|---|---|
| 1777973271 | 12.22° C | 91% | 1004.4 hPa | 1.02 mm | 1.79 m/s, 339° | 0 W/m² | - |
| 1777973211 | 12.22° C | 91% | 1004.4 hPa | 1.02 mm | 2.24 m/s, 22° | 0 W/m² | - |
| 1777973146 | 12.22° C | 91% | 1004.4 hPa | 1.27 mm | 2.24 m/s, 343° | 0 W/m² | - |
| 1777973086 | 12.22° C | 91% | 1004.4 hPa | 1.27 mm | 2.24 m/s, 350° | 0 W/m² | - |
| 1777973031 | 12.22° C | 91% | 1004.4 hPa | 1.27 mm | 2.24 m/s, 25° | 0 W/m² | - |
| 1777972967 | 12.22° C | 91% | 1004.2 hPa | 1.27 mm | 2.68 m/s, 37° | 0 W/m² | - |
| 1777972917 | 12.22° C | 91% | 1004.1 hPa | 1.27 mm | 2.68 m/s, 312° | 0 W/m² | - |
| 1777972846 | 12.22° C | 91% | 1003.9 hPa | 1.27 mm | 2.68 m/s, 14° | 0 W/m² | - |
| 1777972786 | 12.22° C | 91% | 1004 hPa | 1.27 mm | 2.68 m/s, 17° | 0 W/m² | - |
| 1777972725 | 12.22° C | 91% | 1003.9 hPa | 1.27 mm | 2.68 m/s, 357° | 0 W/m² | - |
| 1777972668 | 12.22° C | 91% | 1003.8 hPa | 1.27 mm | 2.24 m/s, 31° | 0 W/m² | - |
| 1777972606 | 12.22° C | 91% | 1003.6 hPa | 1.27 mm | 2.24 m/s, 2° | 0 W/m² | - |
| 1777972547 | 12.22° C | 91% | 1003.6 hPa | 1.27 mm | 2.68 m/s, 328° | 0 W/m² | - |
| 1777972492 | 12.22° C | 91% | 1003.5 hPa | 1.27 mm | 2.24 m/s, 326° | 0 W/m² | - |
| 1777972428 | 12.22° C | 91% | 1003.7 hPa | 1.27 mm | 2.24 m/s, 344° | 0 W/m² | - |
| 1777972366 | 12.22° C | 91% | 1003.9 hPa | 1.52 mm | 2.24 m/s, 349° | 0 W/m² | - |
| 1777972307 | 12.22° C | 91% | 1004 hPa | 1.52 mm | 2.24 m/s, 315° | 0 W/m² | - |
| 1777972246 | 12.22° C | 91% | 1004.2 hPa | 1.52 mm | 2.24 m/s, 2° | 0 W/m² | - |
| 1777972181 | 12.22° C | 91% | 1004.4 hPa | 1.52 mm | 1.79 m/s, 303° | 0 W/m² | - |
| 1777972120 | 12.22° C | 91% | 1004.5 hPa | 1.52 mm | 2.24 m/s, 347° | 0 W/m² | - |
| 1777972059 | 12.22° C | 91% | 1004.6 hPa | 1.52 mm | 1.79 m/s, 16° | 0 W/m² | - |
| 1777971999 | 12.22° C | 91% | 1004.8 hPa | 1.52 mm | 1.79 m/s, 328° | 0 W/m² | - |
| 1777971936 | 12.22° C | 91% | 1005 hPa | 1.27 mm | 1.79 m/s, 301° | 0 W/m² | - |
| 1777971876 | 12.22° C | 91% | 1005.1 hPa | 1.27 mm | 1.79 m/s, 333° | 0 W/m² | - |
| 1777971816 | 12.22° C | 91% | 1005.1 hPa | 1.27 mm | 1.79 m/s, 332° | 0 W/m² | - |
* Rain latest hour (hover to see other rain measurements)
** Current wind speed in m/s (hover to see current wind gust speed)